星链-32269 (STARLINK-32269)

导读 | 豆包AI

STARLINK-32269是美国太空探索技术公司SpaceX于2024年8月4日发射的星链(Starlink)低轨互联网卫星,归属全球卫星互联网星座组网计划。依托低地球轨道部署,它可为全球偏远、基础设施薄弱区域提供高速低延迟宽带服务,支持视频通话、网络游戏等应用,搭配相控阵天线技术与激光星间链路保障通信传输能力,推进星链星座全球覆盖的组网进程。

基本信息
目录编号:
60377
目录名称:
STARLINK-32269
国际标识:
2024-138Y
轨道中心:
EARTH
卫星名称:
星链-32269 (STARLINK-32269)
卫星全名:
星链-32269 (STARLINK-32269)
卫星状态:
在轨 (已飞行635 天)
发射日期:
2024-08-04 UTC
国别 :
美国 (US)
星等 :
--
轨道信息
数据来源 国际轨道数据
星历时间: 2026-05-01T04:24:04+0800
8小时前
查看轨道信息
半长轴: 6853.371km
偏心率: 0.0001361
轨道倾角: 53.161°
近地点辐角 90.797°
升交点赤经 67.314°
平近点角 269.318°
近地点: 474.301km
远地点: 476.167km
周期: 94.106分钟
每日圈数: 15.301939
详细信息
卫星平台:
Starlink v2.0 mini
运营商:
太空探索技术公司
运营商所在国:
美国
制造商(研发单位):
太空探索技术公司
制造商所在国:
美国
使用方式:
暂无
卫星简介
星链(Starlink)计划是由太空探索技术公司(SpaceX)提出的一个巨型低轨卫星互联网星座项目,计划在2019年至2024年间在太空搭建由约1.2万颗卫星组成的“星链”网络,其中1584颗将部署在地球上空550千米处的近地轨道,并从2020年开始工作。该卫星仍在工作。
2D轨道图
3D轨道图
轨道高度分析图
轨道倾角分析图
轨道综合分析图
查看轨道综合分析图